Time,TemperatureF,DewpointF,PressureIn,WindDirection,WindDirectionDegrees,WindSpeedMPH,WindSpeedGustMPH,Humidity,HourlyPrecipIn,Conditions,Clouds,dailyrainin,SoftwareType,DateUTC
2013-03-28 00:03:00,38.0,28.0,-100.00,East,87,6.0,19.0,66,-99.99,,,-99.99,,2013-03-28 04:03:00,
2013-03-28 00:12:00,38.0,28.0,-100.00,ENE,73,5.0,19.0,66,0.00,,,-99.99,,2013-03-28 04:12:00,
2013-03-28 00:23:00,41.0,32.0,-100.00,ENE,77,5.0,19.0,67,-99.99,,,-99.99,,2013-03-28 04:23:00,
2013-03-28 00:32:00,41.0,32.0,-100.00,East,80,4.0,19.0,67,-99.99,,,-99.99,,2013-03-28 04:32:00,
2013-03-28 00:42:00,41.0,32.0,-100.00,NE,36,4.0,19.0,67,-99.99,,,-99.99,,2013-03-28 04:42:00,
2013-03-28 00:52:00,41.0,32.0,-100.00,ENE,66,3.0,19.0,67,-99.99,,,-99.99,,2013-03-28 04:52:00,
2013-03-28 01:02:00,41.0,32.0,-100.00,ENE,64,3.0,19.0,66,-99.99,,,-99.99,,2013-03-28 05:02:00,
2013-03-28 01:12:00,41.0,32.0,-100.00,ENE,70,5.0,19.0,66,-99.99,,,-99.99,,2013-03-28 05:12:00,
2013-03-28 01:22:00,41.0,30.0,-100.00,ENE,60,6.0,19.0,66,-99.99,,,-99.99,,2013-03-28 05:22:00,
2013-03-28 01:32:00,41.0,30.0,-100.00,ENE,74,6.0,19.0,66,-99.99,,,-99.99,,2013-03-28 05:32:00,
2013-03-28 01:42:00,41.0,30.0,-100.00,NE,49,4.0,19.0,66,-99.99,,,-99.99,,2013-03-28 05:42:00,
2013-03-28 01:52:00,41.0,30.0,-100.00,East,86,4.0,19.0,66,-99.99,,,-99.99,,2013-03-28 05:52:00,
2013-03-28 02:02:00,40.0,30.0,-100.00,NE,40,4.0,19.0,64,-99.99,,,-99.99,,2013-03-28 06:02:00,
2013-03-28 02:12:00,40.0,30.0,-100.00,ENE,60,4.0,19.0,66,-99.99,,,-99.99,,2013-03-28 06:12:00,
2013-03-28 02:22:00,40.0,30.0,-100.00,NE,55,2.0,19.0,66,-99.99,,,-99.99,,2013-03-28 06:22:00,
2013-03-28 02:32:00,40.0,30.0,-100.00,East,100,4.0,19.0,64,-99.99,,,-99.99,,2013-03-28 06:32:00,
2013-03-28 02:42:00,41.0,30.0,-100.00,NNE,31,2.0,19.0,64,-99.99,,,-99.99,,2013-03-28 06:42:00,
2013-03-28 02:52:00,41.0,30.0,-100.00,NNE,32,2.0,19.0,64,-99.99,,,-99.99,,2013-03-28 06:52:00,
2013-03-28 03:02:00,41.0,30.0,-100.00,ENE,69,2.0,19.0,64,-99.99,,,-99.99,,2013-03-28 07:02:00,
2013-03-28 03:13:00,40.0,30.0,-100.00,ENE,69,2.0,19.0,63,-99.99,,,-99.99,,2013-03-28 07:13:00,
2013-03-28 03:22:00,40.0,30.0,-100.00,NE,56,4.0,19.0,63,0.00,,,-99.99,,2013-03-28 07:22:00,
2013-03-28 03:32:00,41.0,30.0,-100.00,ENE,76,4.0,19.0,63,2.83,,,-99.99,,2013-03-28 07:32:00,
2013-03-28 03:42:00,40.0,30.0,-100.00,ENE,57,5.0,5.0,63,2.83,,,-99.99,,2013-03-28 07:42:00,
2013-03-28 03:52:00,38.0,27.0,-100.00,ENE,76,4.0,5.0,62,0.00,,,-99.99,,2013-03-28 07:52:00,
2013-03-28 04:02:00,38.0,27.0,-100.00,NE,56,6.0,8.0,62,-99.99,,,-99.99,,2013-03-28 08:02:00,
2013-03-28 04:12:00,38.0,27.0,-100.00,NE,42,6.0,8.0,63,-99.99,,,-99.99,,2013-03-28 08:12:00,
2013-03-28 04:22:00,38.0,27.0,-100.00,East,80,4.0,8.0,62,-99.99,,,-99.99,,2013-03-28 08:22:00,
2013-03-28 04:33:00,37.0,25.0,-100.00,ENE,59,5.0,8.0,60,-99.99,,,-99.99,,2013-03-28 08:33:00,
2013-03-28 04:42:00,37.0,27.0,-100.00,ENE,60,6.0,8.0,62,-99.99,,,-99.99,,2013-03-28 08:42:00,
2013-03-28 04:52:00,37.0,27.0,-100.00,NE,55,3.0,8.0,62,-99.99,,,-99.99,,2013-03-28 08:52:00,
2013-03-28 05:02:00,37.0,27.0,-100.00,SE,124,2.0,8.0,63,-99.99,,,-99.99,,2013-03-28 09:02:00,
2013-03-28 05:12:00,37.0,27.0,-100.00,ENE,70,6.0,8.0,62,-99.99,,,-99.99,,2013-03-28 09:12:00,
2013-03-28 05:22:00,37.0,27.0,-100.00,ENE,57,6.0,8.0,62,-99.99,,,-99.99,,2013-03-28 09:22:00,
2013-03-28 05:32:00,37.0,27.0,-100.00,NE,53,3.0,8.0,62,-99.99,,,-99.99,,2013-03-28 09:32:00,
2013-03-28 05:42:00,37.0,27.0,-100.00,ENE,66,2.0,8.0,63,-99.99,,,-99.99,,2013-03-28 09:42:00,
2013-03-28 05:52:00,37.0,27.0,-100.00,ENE,66,2.0,8.0,63,-99.99,,,-99.99,,2013-03-28 09:52:00,
2013-03-28 06:03:00,37.0,27.0,-100.00,East,101,3.0,8.0,63,-99.99,,,-99.99,,2013-03-28 10:03:00,
2013-03-28 06:12:00,37.0,27.0,-100.00,NE,48,4.0,8.0,63,-99.99,,,-99.99,,2013-03-28 10:12:00,
2013-03-28 06:22:00,36.0,25.0,-100.00,ENE,67,2.0,8.0,63,0.00,,,-99.99,,2013-03-28 10:22:00,
2013-03-28 06:33:00,36.0,27.0,-100.00,ENE,72,2.0,8.0,63,0.00,,,-99.99,,2013-03-28 10:33:00,
2013-03-28 06:43:00,36.0,25.0,-100.00,NNE,31,1.0,8.0,63,2.83,,,-99.99,,2013-03-28 10:43:00,
2013-03-28 07:02:00,36.0,27.0,-100.00,ENE,77,2.0,8.0,64,0.00,,,-99.99,,2013-03-28 11:02:00,
2013-03-28 07:12:00,36.0,27.0,-100.00,East,79,2.0,8.0,64,-99.99,,,-99.99,,2013-03-28 11:12:00,
2013-03-28 07:23:00,36.0,27.0,-100.00,ESE,121,1.0,8.0,64,-99.99,,,-99.99,,2013-03-28 11:23:00,
2013-03-28 07:32:00,36.0,25.0,-100.00,ESE,111,2.0,8.0,64,-99.99,,,-99.99,,2013-03-28 11:32:00,
2013-03-28 07:43:00,36.0,27.0,-100.00,NE,38,2.0,8.0,66,-99.99,,,-99.99,,2013-03-28 11:43:00,
2013-03-28 07:52:00,36.0,27.0,-100.00,ENE,63,2.0,8.0,66,-99.99,,,-99.99,,2013-03-28 11:52:00,
2013-03-28 08:02:00,36.0,27.0,-100.00,East,87,1.0,8.0,66,-99.99,,,-99.99,,2013-03-28 12:02:00,
2013-03-28 08:12:00,36.0,27.0,-100.00,ENE,70,2.0,8.0,66,-99.99,,,-99.99,,2013-03-28 12:12:00,
2013-03-28 08:22:00,36.0,27.0,-100.00,NE,56,3.0,8.0,66,-99.99,,,-99.99,,2013-03-28 12:22:00,
2013-03-28 08:32:00,36.0,27.0,-100.00,ENE,59,3.0,8.0,66,-99.99,,,-99.99,,2013-03-28 12:32:00,
2013-03-28 08:42:00,36.0,27.0,-100.00,East,86,4.0,8.0,66,-99.99,,,-99.99,,2013-03-28 12:42:00,
2013-03-28 08:52:00,36.0,27.0,-100.00,East,91,6.0,8.0,64,-99.99,,,-99.99,,2013-03-28 12:52:00,
2013-03-28 09:02:00,36.0,27.0,-100.00,ENE,69,4.0,8.0,64,-99.99,,,-99.99,,2013-03-28 13:02:00,
2013-03-28 09:12:00,36.0,25.0,-100.00,SE,124,6.0,8.0,63,-99.99,,,-99.99,,2013-03-28 13:12:00,
2013-03-28 09:22:00,37.0,27.0,-100.00,East,90,5.0,8.0,63,-99.99,,,-99.99,,2013-03-28 13:22:00,
2013-03-28 09:32:00,36.0,25.0,-100.00,ENE,63,4.0,8.0,63,0.00,,,-99.99,,2013-03-28 13:32:00,
2013-03-28 09:42:00,36.0,25.0,-100.00,ENE,77,7.0,12.0,62,-99.99,,,-99.99,,2013-03-28 13:42:00,
2013-03-28 09:52:00,37.0,27.0,-100.00,NE,55,5.0,12.0,63,-99.99,,,-99.99,,2013-03-28 13:52:00,
2013-03-28 10:02:00,36.0,25.0,-100.00,ESE,111,5.0,12.0,62,-99.99,,,-99.99,,2013-03-28 14:02:00,
2013-03-28 10:12:00,37.0,27.0,-100.00,ESE,107,3.0,12.0,62,-99.99,,,-99.99,,2013-03-28 14:12:00,
2013-03-28 10:22:00,38.0,27.0,-100.00,ENE,66,5.0,12.0,60,-99.99,,,-99.99,,2013-03-28 14:22:00,
2013-03-28 10:33:00,38.0,27.0,-100.00,East,96,4.0,12.0,59,-99.99,,,-99.99,,2013-03-28 14:33:00,
2013-03-28 10:42:00,40.0,27.0,-100.00,SSE,156,4.0,12.0,56,-99.99,,,-99.99,,2013-03-28 14:42:00,
2013-03-28 10:52:00,39.0,25.0,-100.00,ENE,73,4.0,12.0,56,-99.99,,,-99.99,,2013-03-28 14:52:00,
2013-03-28 11:02:00,40.0,27.0,-100.00,ENE,63,5.0,12.0,58,-99.99,,,-99.99,,2013-03-28 15:02:00,
2013-03-28 11:12:00,41.0,28.0,-100.00,ENE,64,5.0,12.0,59,-99.99,,,-99.99,,2013-03-28 15:12:00,
2013-03-28 11:22:00,42.0,28.0,-100.00,ESE,112,4.0,12.0,58,-99.99,,,-99.99,,2013-03-28 15:22:00,
2013-03-28 11:33:00,40.0,27.0,-100.00,SE,124,6.0,12.0,56,-99.99,,,-99.99,,2013-03-28 15:33:00,
2013-03-28 11:43:00,41.0,27.0,-100.00,East,90,3.0,12.0,56,-99.99,,,-99.99,,2013-03-28 15:43:00,
2013-03-28 11:52:00,40.0,27.0,-100.00,East,97,6.0,12.0,55,-99.99,,,-99.99,,2013-03-28 15:52:00,
2013-03-28 12:03:00,41.0,27.0,-100.00,ENE,73,6.0,12.0,55,-99.99,,,-99.99,,2013-03-28 16:03:00,
2013-03-28 12:12:00,41.0,27.0,-100.00,East,96,7.0,12.0,54,-99.99,,,-99.99,,2013-03-28 16:12:00,
2013-03-28 12:23:00,41.0,27.0,-100.00,NE,46,6.0,12.0,54,-99.99,,,-99.99,,2013-03-28 16:23:00,
2013-03-28 12:32:00,41.0,27.0,-100.00,ESE,111,5.0,12.0,54,-99.99,,,-99.99,,2013-03-28 16:32:00,
2013-03-28 12:42:00,42.0,27.0,-100.00,ENE,67,5.0,12.0,54,0.00,,,-99.99,,2013-03-28 16:42:00,
2013-03-28 12:52:00,45.0,30.0,-100.00,SE,135,4.0,12.0,53,-99.99,,,-99.99,,2013-03-28 16:52:00,
2013-03-28 13:02:00,42.0,27.0,-100.00,NE,45,6.0,12.0,51,-99.99,,,-99.99,,2013-03-28 17:02:00,
2013-03-28 13:12:00,44.0,30.0,-100.00,East,88,7.0,12.0,54,-99.99,,,-99.99,,2013-03-28 17:12:00,
2013-03-28 13:22:00,42.0,27.0,-100.00,SSE,153,7.0,12.0,53,-99.99,,,-99.99,,2013-03-28 17:22:00,
2013-03-28 13:32:00,45.0,30.0,-100.00,West,262,6.0,12.0,54,-99.99,,,-99.99,,2013-03-28 17:32:00,
2013-03-28 13:42:00,44.0,27.0,-100.00,East,93,6.0,12.0,50,-99.99,,,-99.99,,2013-03-28 17:42:00,
2013-03-28 13:52:00,47.0,30.0,-100.00,SE,127,4.0,12.0,50,-99.99,,,-99.99,,2013-03-28 17:52:00,
2013-03-28 14:02:00,46.0,28.0,-100.00,SE,145,7.0,12.0,50,-99.99,,,-99.99,,2013-03-28 18:02:00,
2013-03-28 14:12:00,44.0,27.0,-100.00,East,96,6.0,12.0,49,-99.99,,,-99.99,,2013-03-28 18:12:00,
2013-03-28 14:22:00,47.0,30.0,-100.00,ENE,63,6.0,12.0,49,-99.99,,,-99.99,,2013-03-28 18:22:00,
2013-03-28 14:32:00,46.0,30.0,-100.00,NE,38,6.0,12.0,53,-99.99,,,-99.99,,2013-03-28 18:32:00,
2013-03-28 14:42:00,47.0,30.0,-100.00,ENE,67,5.0,12.0,51,-99.99,,,-99.99,,2013-03-28 18:42:00,
2013-03-28 14:52:00,47.0,30.0,-100.00,SE,146,7.0,12.0,51,-99.99,,,-99.99,,2013-03-28 18:52:00,
2013-03-28 15:02:00,47.0,30.0,-100.00,ESE,103,8.0,12.0,51,-99.99,,,-99.99,,2013-03-28 19:02:00,
2013-03-28 15:12:00,48.0,32.0,-100.00,SE,125,6.0,12.0,51,-99.99,,,-99.99,,2013-03-28 19:12:00,
2013-03-28 15:22:00,48.0,32.0,-100.00,SE,125,5.0,12.0,51,-99.99,,,-99.99,,2013-03-28 19:22:00,
2013-03-28 15:33:00,48.0,30.0,-100.00,East,91,5.0,12.0,49,-99.99,,,-99.99,,2013-03-28 19:33:00,
2013-03-28 15:42:00,48.0,32.0,-100.00,East,80,7.0,12.0,51,0.00,,,-99.99,,2013-03-28 19:42:00,
2013-03-28 15:52:00,48.0,30.0,-100.00,NNE,19,6.0,12.0,50,2.83,,,-99.99,,2013-03-28 19:52:00,
2013-03-28 16:03:00,47.0,30.0,-100.00,ESE,120,7.0,12.0,50,0.00,,,-99.99,,2013-03-28 20:03:00,
2013-03-28 16:12:00,48.0,30.0,-100.00,East,86,5.0,12.0,49,0.00,,,-99.99,,2013-03-28 20:12:00,
2013-03-28 16:22:00,47.0,30.0,-100.00,NE,43,6.0,12.0,50,0.00,,,-99.99,,2013-03-28 20:22:00,
2013-03-28 16:32:00,49.0,32.0,-100.00,East,94,4.0,12.0,49,-99.99,,,-99.99,,2013-03-28 20:32:00,
2013-03-28 16:42:00,49.0,32.0,-100.00,East,80,6.0,12.0,49,-99.99,,,-99.99,,2013-03-28 20:42:00,
2013-03-28 16:52:00,48.0,30.0,-100.00,ESE,108,7.0,14.0,49,-99.99,,,-99.99,,2013-03-28 20:52:00,
2013-03-28 17:02:00,48.0,30.0,-100.00,ESE,120,6.0,14.0,49,-99.99,,,-99.99,,2013-03-28 21:02:00,
2013-03-28 17:12:00,48.0,30.0,-100.00,SE,129,6.0,14.0,49,-99.99,,,-99.99,,2013-03-28 21:12:00,
2013-03-28 17:22:00,49.0,32.0,-100.00,South,187,6.0,14.0,49,-99.99,,,-99.99,,2013-03-28 21:22:00,
2013-03-28 17:33:00,49.0,32.0,-100.00,ENE,66,4.0,14.0,49,-99.99,,,-99.99,,2013-03-28 21:33:00,
2013-03-28 17:43:00,49.0,32.0,-100.00,ENE,72,4.0,14.0,49,-99.99,,,-99.99,,2013-03-28 21:43:00,
2013-03-28 17:53:00,48.0,30.0,-100.00,East,88,6.0,14.0,49,-99.99,,,-99.99,,2013-03-28 21:53:00,
2013-03-28 18:03:00,49.0,32.0,-100.00,East,90,4.0,14.0,50,-99.99,,,-99.99,,2013-03-28 22:03:00,
2013-03-28 18:13:00,48.0,30.0,-100.00,ENE,73,7.0,14.0,50,-99.99,,,-99.99,,2013-03-28 22:13:00,
2013-03-28 18:22:00,48.0,32.0,-100.00,SE,129,7.0,14.0,50,-99.99,,,-99.99,,2013-03-28 22:22:00,
2013-03-28 18:32:00,48.0,32.0,-100.00,SE,125,4.0,14.0,50,-99.99,,,-99.99,,2013-03-28 22:32:00,
2013-03-28 18:42:00,48.0,32.0,-100.00,East,91,4.0,14.0,50,-99.99,,,-99.99,,2013-03-28 22:42:00,
2013-03-28 18:52:00,48.0,30.0,-100.00,SE,136,3.0,14.0,50,-99.99,,,-99.99,,2013-03-28 22:52:00,
2013-03-28 19:03:00,48.0,30.0,-100.00,East,91,4.0,14.0,50,0.00,,,-99.99,,2013-03-28 23:03:00,
2013-03-28 19:12:00,47.0,30.0,-100.00,ESE,114,3.0,14.0,51,-99.99,,,-99.99,,2013-03-28 23:12:00,
2013-03-28 19:22:00,48.0,32.0,-100.00,ENE,73,3.0,14.0,51,-99.99,,,-99.99,,2013-03-28 23:22:00,
2013-03-28 19:32:00,48.0,32.0,-100.00,ESE,110,1.0,14.0,51,-99.99,,,-99.99,,2013-03-28 23:32:00,
2013-03-28 19:42:00,48.0,32.0,-100.00,ENE,60,1.0,14.0,53,-99.99,,,-99.99,,2013-03-28 23:42:00,
2013-03-28 19:52:00,47.0,32.0,-100.00,ESE,104,1.0,14.0,53,-99.99,,,-99.99,,2013-03-28 23:52:00,
2013-03-28 20:02:00,47.0,32.0,-100.00,SE,141,2.0,14.0,54,-99.99,,,-99.99,,2013-03-29 00:02:00,
2013-03-28 20:12:00,47.0,32.0,-100.00,South,170,2.0,14.0,54,-99.99,,,-99.99,,2013-03-29 00:12:00,
2013-03-28 20:22:00,47.0,32.0,-100.00,East,86,2.0,14.0,54,-99.99,,,-99.99,,2013-03-29 00:22:00,
2013-03-28 20:32:00,47.0,32.0,-100.00,SE,127,1.0,14.0,55,-99.99,,,-99.99,,2013-03-29 00:32:00,
2013-03-28 20:42:00,47.0,32.0,-100.00,East,81,1.0,14.0,55,-99.99,,,-99.99,,2013-03-29 00:42:00,
2013-03-28 20:52:00,44.0,30.0,-100.00,NE,55,1.0,14.0,56,-99.99,,,-99.99,,2013-03-29 00:52:00,
2013-03-28 21:02:00,44.0,28.0,-100.00,East,100,0.0,14.0,54,-99.99,,,-99.99,,2013-03-29 01:02:00,
2013-03-28 21:12:00,43.0,28.0,-100.00,East,100,0.0,14.0,54,-99.99,,,-99.99,,2013-03-29 01:12:00,
2013-03-28 21:22:00,45.0,32.0,-100.00,East,90,0.0,14.0,62,-99.99,,,-99.99,,2013-03-29 01:22:00,
2013-03-28 21:33:00,43.0,30.0,-100.00,SW,235,0.0,14.0,59,-99.99,,,-99.99,,2013-03-29 01:33:00,
2013-03-28 21:42:00,44.0,32.0,-100.00,ESE,114,0.0,14.0,66,-99.99,,,-99.99,,2013-03-29 01:42:00,
2013-03-28 21:52:00,43.0,32.0,-100.00,South,180,0.0,14.0,68,-99.99,,,-99.99,,2013-03-29 01:52:00,
2013-03-28 22:02:00,43.0,32.0,-100.00,SSE,156,0.0,14.0,68,-99.99,,,-99.99,,2013-03-29 02:02:00,
2013-03-28 22:12:00,42.0,32.0,-100.00,SSW,197,0.0,14.0,69,-99.99,,,-99.99,,2013-03-29 02:12:00,
2013-03-28 22:22:00,41.0,32.0,-100.00,SE,139,0.0,14.0,71,-99.99,,,-99.99,,2013-03-29 02:22:00,
2013-03-28 22:32:00,41.0,32.0,-100.00,SE,142,0.0,14.0,71,-99.99,,,-99.99,,2013-03-29 02:32:00,
2013-03-28 22:42:00,41.0,32.0,-100.00,South,173,0.0,14.0,72,-99.99,,,-99.99,,2013-03-29 02:42:00,
2013-03-28 22:52:00,40.0,32.0,-100.00,SE,128,0.0,14.0,73,-99.99,,,-99.99,,2013-03-29 02:52:00,
2013-03-28 23:02:00,40.0,32.0,-100.00,SE,135,0.0,14.0,73,-99.99,,,-99.99,,2013-03-29 03:02:00,
2013-03-28 23:12:00,40.0,32.0,-100.00,SSW,192,0.0,14.0,75,-99.99,,,-99.99,,2013-03-29 03:12:00,
2013-03-28 23:22:00,39.0,32.0,-100.00,South,170,1.0,14.0,75,-99.99,,,-99.99,,2013-03-29 03:22:00,
2013-03-28 23:32:00,38.0,32.0,-100.00,SSE,149,0.0,14.0,76,-99.99,,,-99.99,,2013-03-29 03:32:00,
2013-03-28 23:43:00,38.0,32.0,-100.00,SE,129,0.0,14.0,77,-99.99,,,-99.99,,2013-03-29 03:43:00,
2013-03-28 23:53:00,38.0,32.0,-100.00,WSW,251,0.0,14.0,77,-99.99,,,-99.99,,2013-03-29 03:53:00,